Weather Roundup
Issued by NWS Corpus Christi, TX

Home | Current Version | Previous Version | Text Only | Print | Product List | Glossary On
Versions: 1 2 3 4 5 6 7 8 9 10 11 12 13 14 15 16 17 18 19 20 21 22 23 24 25 26 27 28 29 30 31 32 33 34 35 36 37 38 39 40 41 42 43 44 45 46 47 48 49 50
000
ASUS44 KCRP 302110
HRRCRP

SOUTH TEXAS REGIONAL WEATHER ROUNDUP
NATIONAL WEATHER SERVICE CORPUS CHRISTI TX
400 PM CDT SAT APR 30 2016


TXZ229>244-302200-
...CORPUS CHRISTI AREA OBSERVATIONS...

CITY           SKY/WX    TMP DP  RH WIND       PRES   REMARKS
CORPUS CHRISTI PTSUNNY   93  71  48 E9        29.63F HX 100
NAS CORPUS CHR SUNNY     87  75  67 SE10      29.64F HX  96
ROCKPORT       SUNNY     86  74  67 SE12      29.63F HX  94
KINGSVILLE NAS PTSUNNY   94  73  50 NE9       29.63F HX 103
ALICE          SUNNY     94  62  34 MISG      29.64F HX  94
FALFURRIAS     MOSUNNY   95  66  37 N7        29.62F HX  98
$$

...VICTORIA AREA OBSERVATIONS...

CITY           SKY/WX    TMP DP  RH WIND       PRES   REMARKS
VICTORIA       CLOUDY    87  74  64 N8        29.66F HX  95
BEEVILLE       FAIR      91  66  43 NE8       29.66F HX  93
PLEASANTON     SUNNY     87  61  42 N8        29.71F
SAN ANTONIO    MOSUNNY   85  60  42 NE9       29.72F
$$

...LAREDO AREA OBSERVATIONS...

CITY           SKY/WX    TMP DP  RH WIND       PRES   REMARKS
LAREDO         SUNNY     92  48  22 VRB5      29.69F
COTULLA        SUNNY     94  35  12 N9        29.70F
DEL RIO        SUNNY     89  32  13 VRB6      29.69F
MCALLEN        MOSUNNY  100  67  33 NE6G16    29.61F HX 105
HEBBRONVILLE   SUNNY     94  40  15 NE8       29.67F HX  90
$$

...OTHER TEXAS OBSERVATIONS...

CITY           SKY/WX    TMP DP  RH WIND       PRES   REMARKS
BROWNSVILLE    SUNNY     88  76  67 NE9       29.64F HX  99
HOUSTON        PTSUNNY   84  65  52 E6        29.68F
COL. STATION   SUNNY     84  62  47 CALM      29.70F
AUSTIN         MOSUNNY   81  66  60 CALM      29.72F
WACO           SUNNY     77  62  59 CALM      29.75F
FORT WORTH     MOSUNNY   74  59  59 VRB5      29.76F
WICHITA FALLS  SUNNY     73  48  41 NW8       29.78F
LUBBOCK        PTSUNNY   72  36  26 CALM      29.82F
EL PASO        MOSUNNY   76  18  11 SW14G22   29.78F
$$

...MARINE OBSERVATIONS...

STATION/POSITION TIME  SKY/WX   TEMP    WIND        PRES    VSBY  WAVE   SWELL
                                AIR SEA DIR/SP/G                  HT/PER HT/PER
                 (UTC)          (F)     (DEG/KT/KT) (MB)    (MI)  (FT/S) (FT/S)
PORT ARANSAS     2100            79 80  130/  8/  8 1004.6F
BUOY 90 E PORT A 2050            78 78  120/  6/  8 1004.4F         6/ 8   5/ 8
BUOY 45 SE BAFFI 2050            78 78  140/  8/ 10 1003.8F         5/ 8   5/ 8
BUOY 200 E PT IS 2050                                 N/A           8/ 8   5/ 8
BUOY 15 E GALVES 2050            77 78   80/ 12/ 12 1004.7F         4/ 8   3/ 8
$$




USA.gov is the U.S. government's official web portal to all federal, state and local government web resources and services.